CDT,Max TemperatureF,Mean TemperatureF,Min TemperatureF,Max Dew PointF,MeanDew PointF,Min DewpointF,Max Humidity, Mean Humidity, Min Humidity, Max Sea Level PressureIn, Mean Sea Level PressureIn, Min Sea Level PressureIn, Max VisibilityMiles, Mean VisibilityMiles, Min VisibilityMiles, Max Wind SpeedMPH, Mean Wind SpeedMPH, Max Gust SpeedMPH,PrecipitationIn, CloudCover, Events, WindDirDegrees
2012-10-1,76,60,44,49,44,38,93,61,29,29.99,29.93,29.89,10,10,10,29,11,36,0.00,4,,349
2012-10-2,74,57,39,44,36,32,79,51,22,30.01,29.94,29.87,10,10,7,10,4,12,0.00,0,,360
2012-10-3,81,63,45,43,38,33,80,49,18,29.92,29.86,29.77,10,10,10,25,12,35,0.00,1,,167
2012-10-4,61,50,39,45,36,31,71,54,36,30.33,30.18,29.95,10,10,10,29,14,37,0.06,6,Rain-Thunderstorm,334
2012-10-5,53,44,34,32,27,22,82,56,30,30.37,30.32,30.27,10,10,10,17,7,21,0.00,4,,332
2012-10-6,48,37,26,26,24,19,75,57,39,30.40,30.35,30.31,10,10,10,20,8,28,0.00,4,,340
2012-10-7,58,43,28,29,25,22,85,55,25,30.33,30.21,30.05,10,10,10,20,7,28,0.00,1,,208
2012-10-8,71,54,37,34,32,29,82,52,22,30.04,29.90,29.78,10,10,9,24,12,33,0.00,3,,177
2012-10-9,56,46,36,41,31,21,66,48,30,30.17,29.96,29.80,10,10,10,26,10,35,0.00,4,,343
2012-10-10,64,49,33,30,28,24,82,54,26,30.27,30.16,30.06,10,10,10,17,6,21,0.00,0,,190
2012-10-11,66,54,41,36,31,23,70,51,31,30.37,30.13,30.03,10,10,10,25,12,31,0.00,4,,62
2012-10-12,58,46,33,45,28,19,71,48,24,30.40,30.26,30.01,10,10,7,25,13,32,T,5,Rain,121
2012-10-13,73,63,52,65,58,46,97,81,64,29.98,29.74,29.54,10,8,2,24,8,30,0.59,7,Rain-Thunderstorm,164
2012-10-14,68,57,46,63,49,37,93,63,32,29.99,29.78,29.58,10,8,2,28,12,37,0.44,5,Rain-Thunderstorm,336
2012-10-15,74,58,42,47,42,39,89,60,31,30.00,29.91,29.75,10,10,9,15,7,18,0.00,3,,158
2012-10-16,81,67,52,49,46,43,83,55,26,29.73,29.53,29.39,10,10,10,16,8,20,0.00,3,,198
2012-10-17,66,59,52,51,39,21,86,57,28,29.58,29.47,29.30,10,10,8,31,16,41,0.04,6,Rain,286
2012-10-18,53,49,44,42,33,21,89,59,28,29.62,29.55,29.49,10,8,3,40,23,64,0.35,7,Rain,297
2012-10-19,48,44,40,40,39,39,89,83,76,29.84,29.75,29.62,10,10,5,37,17,46,0.08,8,Rain,325
2012-10-20,66,51,36,43,39,35,92,65,37,29.86,29.79,29.69,10,10,6,17,8,22,0.00,2,Fog,146
2012-10-21,81,64,47,63,53,42,86,68,49,29.79,29.74,29.69,10,10,8,23,8,28,0.00,3,,150
2012-10-22,68,63,57,63,56,52,93,83,73,29.81,29.77,29.75,10,7,4,14,8,17,0.01,7,Rain-Thunderstorm,349
2012-10-23,76,65,54,63,56,53,93,81,68,29.80,29.74,29.63,8,4,1,14,5,16,0.00,6,,192
2012-10-24,60,53,46,58,53,44,100,93,86,29.78,29.75,29.73,7,2,0,21,11,25,0.01,7,Fog-Rain,351
2012-10-25,47,39,30,45,35,25,92,78,64,30.38,29.98,29.68,10,8,2,32,19,43,0.49,8,Rain-Thunderstorm,336
2012-10-26,44,36,28,29,25,24,85,67,49,30.54,30.47,30.34,10,10,10,18,8,24,0.00,6,,331
2012-10-27,46,37,27,28,25,22,85,65,45,30.45,30.38,30.29,10,10,10,9,2,12,0.00,5,,173
2012-10-28,52,43,34,30,29,27,75,58,41,30.36,30.29,30.23,10,10,10,17,10,24,0.00,5,,151
2012-10-29,57,49,41,31,29,27,65,51,36,30.26,30.19,30.11,10,10,10,23,14,29,0.00,4,,150
2012-10-30,54,45,35,31,28,24,82,59,35,30.14,30.10,30.05,10,10,10,14,7,17,0.00,4,,108
2012-10-31,59,44,29,37,31,26,92,64,36,30.10,30.06,30.00,10,10,9,8,2,10,0.00,3,,328